GW2402 Weather Reports


Display with metric or nautical units.
time (UTC)temp
F
wind
direction
speed
MPH
gust
MPH
rain 1hr
in
rain 24hr
in
rain mn
in
humidity
%
barometer
mb
20260503040040 60 0 0.0 0.0 0.00 0.00 0.00 79 1021.5
20260503034546 61 0 0.0 0.0 0.00 0.00 0.00 77 1021.4
20260503033048 61 0 0.0 0.0 0.00 0.00 0.00 74 1021.3
20260503031548 62 0 0.0 0.0 0.00 0.00 0.00 73 1021.0
20260503030043 62 0 0.0 0.0 0.00 0.00 0.00 72 1021.1
20260503024539 63 0 0.0 0.0 0.00 0.00 0.00 69 1020.8
20260503023048 64 0 0.0 0.0 0.00 0.00 0.00 69 1020.5
20260503021545 64 0 0.0 0.0 0.00 0.00 0.00 67 1020.3
20260503020053 66 0 0.0 0.0 0.00 0.00 0.00 63 1020.1
20260503014614 66 0 0.0 0.0 0.00 0.00 0.00 60 1020.1
20260503013043 67 0 0.0 0.0 0.00 0.00 0.00 57 1020.2
20260503011546 68 0 0.0 0.0 0.00 0.00 0.00 54 1019.8
20260503010048 69 0 0.0 0.0 0.00 0.00 0.00 54 1019.9
20260503004557 70 0 0.0 0.0 0.00 0.00 0.00 53 1019.8
20260503003058 71 0 0.0 0.0 0.00 0.00 0.00 53 1019.6
20260503001550 72 0 0.0 1.0 0.00 0.00 0.00 50 1019.6
20260503000049 73 0 0.0 1.0 0.00 0.00 0.00 48 1019.6
20260502234550 73 113 0.0 1.0 0.00 0.01 0.00 46 1019.7
20260502233053 73 0 0.0 1.0 0.00 0.01 0.00 49 1019.5
20260502231553 74 134 0.0 1.0 0.00 0.01 0.00 48 1019.5
20260502230052 74 0 0.0 2.0 0.00 0.01 0.00 48 1019.5
20260502224602 74 217 0.0 2.0 0.00 0.10 0.00 49 1019.5
20260502223046 74 0 0.0 1.0 0.00 0.10 0.00 46 1019.5
20260502221550 74 0 0.0 1.0 0.00 0.10 0.00 51 1019.7
20260502220043 75 0 0.0 1.0 0.00 0.10 0.00 49 1019.8
20260502214546 75 109 0.0 3.0 0.00 0.24 0.00 44 1019.9
20260502213048 75 0 0.0 2.0 0.00 0.24 0.00 46 1019.9
20260502211553 76 102 0.0 2.0 0.00 0.24 0.00 44 1020.1
20260502210042 75 115 0.0 2.0 0.00 0.24 0.00 44 1020.4
20260502204544 75 0 0.0 2.0 0.00 0.27 0.00 49 1020.7
20260502203056 75 99 0.0 3.0 0.00 0.27 0.00 47 1020.6
20260502201543 74 0 0.0 2.0 0.00 0.27 0.00 48 1021.0
20260502200042 74 233 0.0 2.0 0.00 0.27 0.00 51 1021.1
20260502194538 74 104 0.0 2.0 0.00 0.32 0.00 49 1021.2
20260502193048 73 98 0.0 4.0 0.00 0.32 0.00 52 1021.3
20260502191548 73 0 0.0 3.0 0.00 0.32 0.00 54 1021.2
20260502190045 72 0 1.0 2.0 0.00 0.32 0.00 51 1021.3
20260502184554 72 353 0.0 2.0 0.00 0.52 0.00 53 1021.4
20260502183058 72 271 0.0 1.0 0.00 0.52 0.00 54 1021.4
20260502181548 71 258 0.0 5.0 0.00 0.52 0.00 55 1021.6
20260502163053 69 0 0.0 3.0 0.00 0.57 0.00 62 1022.9
20260502161542 68 94 0.0 3.0 0.00 0.57 0.00 63 1022.9
20260502151548 62 0 0.0 1.0 0.00 0.65 0.00 72 1022.9
20260502123048 50 0 0.0 0.0 0.00 1.01 0.00 94 1020.9
20260502121546 50 0 0.0 0.0 0.00 1.01 0.00 94 1020.7
20260502114558 50 0 0.0 0.0 0.00 1.19 0.00 94 1020.4
20260502113044 50 0 0.0 0.0 0.00 1.19 0.00 94 1020.3
20260502111554 50 0 0.0 0.0 0.00 1.19 0.00 93 1020.3
20260502110050 50 0 0.0 0.0 0.00 1.19 0.00 93 1020.2
20260502104551 50 0 0.0 0.0 0.00 1.39 0.00 93 1019.9
20260502103050 51 0 0.0 0.0 0.00 1.39 0.00 92 1019.6
20260502101615 51 0 0.0 0.0 0.00 1.39 0.00 92 1019.3
20260502090104 52 0 0.0 0.0 0.00 1.55 0.00 91 1018.4
20260502070054 52 0 0.0 0.0 0.00 1.69 0.00 92 1017.9
20260502064537 52 0 0.0 1.0 0.00 1.71 0.00 92 1018.0
20260502063050 53 0 0.0 0.0 0.00 1.71 0.00 92 1018.2
20260502061544 53 0 0.0 1.0 0.00 1.71 0.00 92 1018.4
20260502060041 53 0 0.0 1.0 0.00 1.71 0.00 92 1018.3
20260502054541 53 0 0.0 0.0 0.00 1.71 0.00 93 1018.4
20260502053038 53 0 0.0 0.0 0.00 1.71 0.00 93 1018.2
20260502051603 53 0 0.0 0.0 0.00 1.71 0.00 93 1018.3
20260502050047 53 0 0.0 0.0 0.00 1.71 0.00 92 1018.0
20260502044548 54 0 0.0 0.0 0.00 1.71 1.71 91 1018.2
20260502043052 54 0 0.0 1.0 0.00 1.71 1.71 91 1018.2
20260502041548 54 0 0.0 1.0 0.00 1.71 1.71 90 1018.1